Location: Pitton
(51.0667°N, 1.7000°W)
Time: 11:11:08
(UTC+00:00)

BREEZE M DEB (TANK) - Pass Details

Date: 17 September 2019
Orbit: 281 x 14544 km, 49.5° (Epoch: 22 October)

Event Time Altitude Azimuth Distance (km) Brightness Sun altitude
Rises 20:48:30 0° 272° (W) 2,095 6.2 -23.0°
Reaches altitude 10° 20:49:49 10° 269° (W) 1,441 5.1 -23.1°
Enters shadow 20:52:17 67° 214° (SSW) 642 2.5 -23.4°
